Location: Brotuna
(46.2000°N, 22.6000°E)
Time: 08:55:42
(UTC+00:00)

Cosmos 2058 - Pass Details

Date: 09 April 2020
Orbit: 563 x 583 km, 82.5° (Epoch: 25 May)

Event Time Altitude Azimuth Distance (km) Brightness Sun altitude
Rises 19:14:20 0° 351° (N) 2,774 7.1 -20.4°
Reaches altitude 10° 19:16:31 10° 351° (N) 1,875 6.1 -20.7°
Maximum altitude 19:20:39 88° 80° (E) 576 2.8 -21.2°
Enters shadow 19:21:17 63° 167° (SSE) 637 2.8 -21.3°
